Theta_e
310 309 310 311 311 311 311 310 310 310 310 310 308 308 308 309 316 322 323 324 324 325 323 321 322 322 320 319 317 315 318 319 321 321 321 321 322 322 322 325 330 336 336 337 340
316 318 319 319 319 318 317 316 316 316 316 316 313 311 309 310 321 325 325 325 324 321 322 322 321 321 317 317 317 316 317 320 319 320 322 321 321 321 322 320 325 340 340 340 339
319 320 319 319 318 317 315 316 319 320 321 322 321 317 313 317 323 322 321 324 322 320 322 322 323 321 322 320 322 318 320 321 319 317 318 319 320 321 322 322 323 327 342 341 340
316 318 317 313 310 308 308 311 315 316 316 318 323 323 318 321 318 322 321 321 321 320 323 323 322 323 322 322 321 323 320 320 320 322 320 320 320 321 319 322 322 325 339 341 342
309 308 306 305 304 304 306 309 309 310 311 312 318 323 317 311 312 322 323 322 321 322 322 322 323 322 323 321 320 322 323 321 320 319 318 319 320 320 319 320 319 320 339 341 342
305 303 301 300 301 301 301 303 306 306 307 308 312 322 314 316 315 322 317 317 318 322 322 322 323 322 322 322 322 321 321 321 320 320 319 322 321 319 320 319 319 318 336 339 341
300 299 299 298 298 298 299 299 301 302 303 305 307 321 314 318 317 319 320 321 319 317 321 322 323 322 322 322 321 322 323 320 321 321 322 320 320 320 321 319 318 318 319 337 339
298 297 297 297 298 298 298 300 303 302 301 302 305 319 319 322 321 321 320 320 320 318 319 322 321 320 322 321 320 321 321 322 321 320 321 321 322 321 318 319 320 319 318 325 337
297 297 297 297 297 301 311 312 310 309 307 303 312 317 319 320 320 319 318 319 317 317 319 319 319 319 320 321 320 319 320 322 321 321 320 321 321 320 321 320 319 319 318 317 316
297 297 297 297 304 312 310 316 316 307 314 315 321 318 316 319 320 321 318 317 316 317 318 319 314 316 317 319 321 320 320 319 319 319 320 320 319 318 318 318 317 314 314 314 315
297 296 296 298 311 311 311 316 313 312 316 315 319 318 319 321 324 322 323 320 316 317 318 318 317 318 317 318 320 321 321 320 319 320 321 321 320 319 317 315 315 316 314 313 314
296 296 296 300 310 311 311 311 311 314 316 317 317 317 319 321 324 321 322 322 317 316 318 318 319 317 317 318 320 321 322 321 320 320 320 320 319 319 317 317 315 316 315 314 313
296 296 299 302 309 311 307 305 309 319 317 313 316 314 311 320 322 321 322 319 319 318 318 317 318 318 318 318 319 319 320 320 321 320 320 318 320 320 317 316 316 315 315 315 314
296 295 303 303 309 308 307 305 311 319 304 305 310 311 313 323 321 322 321 321 319 319 317 317 317 318 318 318 318 320 319 319 320 320 321 319 322 321 319 318 317 316 316 315 315
295 295 300 308 308 305 304 305 316 316 302 306 310 311 312 315 312 312 319 319 323 322 320 321 320 320 320 319 317 319 317 317 318 318 317 318 319 320 318 318 318 318 317 318 315
295 294 296 305 308 302 302 312 316 302 301 311 307 307 308 307 307 305 311 314 317 320 319 320 318 317 318 318 318 319 320 320 318 317 320 317 317 319 319 318 319 318 318 317 319
294 297 296 299 301 300 307 311 301 300 308 305 304 305 305 304 304 304 310 309 316 320 320 319 321 320 318 320 320 319 321 326 325 324 323 317 319 319 318 319 318 319 319 320 320
300 302 303 304 303 301 308 299 297 312 307 304 304 305 304 302 303 303 312 315 309 309 319 322 320 320 313 318 320 319 319 323 328 325 324 321 322 319 319 318 319 322 322 321 321
303 304 304 304 300 303 299 295 298 312 304 304 302 301 301 301 302 301 302 308 304 303 311 320 314 310 310 316 317 319 321 319 323 325 330 324 321 320 319 318 321 321 320 320 319
304 304 305 304 301 302 297 304 309 304 304 304 302 302 302 301 300 300 301 303 304 302 304 314 314 311 318 311 314 319 317 324 326 331 332 328 324 322 321 321 320 320 319 319 319
303 301 304 303 301 293 294 299 304 304 304 304 304 303 303 303 303 302 301 302 302 302 302 312 313 312 310 312 314 310 309 321 324 328 330 329 325 322 320 317 315 318 317 318 319
300 301 303 303 295 295 296 304 306 305 304 305 304 304 303 303 303 303 302 303 303 303 302 306 310 309 306 306 306 306 312 318 324 326 324 329 323 316 315 311 314 315 316 317 319
296 297 303 301 297 299 302 304 304 303 303 303 303 303 303 303 303 303 303 303 305 303 303 304 304 305 302 308 306 309 307 309 309 314 316 316 320 315 310 311 315 314 315 317 318
295 295 295 296 297 301 302 302 303 303 302 301 302 301 301 302 302 303 303 304 304 304 308 307 307 305 304 303 307 307 307 307 308 309 309 309 309 307 308 311 312 312 314 314 315
291 294 297 296 298 300 301 302 303 303 302 301 301 302 302 302 302 301 302 303 303 304 303 303 305 306 305 306 305 306 307 308 307 307 307 306 305 305 306 310 310 309 310 308 307
293 293 294 296 297 299 301 302 303 300 301 301 301 299 300 303 303 303 303 302 302 302 302 302 303 304 303 303 303 304 304 305 305 306 306 305 305 300 308 307 306 306 307 306 304
296 297 292 294 296 296 298 298 298 298 298 299 299 299 299 300 299 298 299 301 302 302 302 302 302 302 303 302 301 302 302 302 303 304 303 302 302 303 309 306 305 306 306 305 304
Wind_Speed
6 8 10 12 13 15 16 17 19 20 21 23 24 26 27 26 20 3 1 1 3 5 7 7 3 7 2 1 1 3 4 1 4 3 8 5 7 6 2 3 3 5 6 6 23
5 7 9 12 14 15 16 17 18 19 21 22 24 25 27 23 13 3 4 4 4 6 5 7 6 10 3 1 2 4 3 5 4 4 6 7 2 5 6 4 1 2 5 18 27
4 6 9 11 13 15 17 17 17 19 20 22 23 24 25 16 3 2 6 4 4 4 5 6 5 1 3 3 2 1 4 4 7 8 7 7 8 3 3 6 5 4 6 9 19
4 6 8 10 13 14 15 16 16 17 19 21 22 23 21 7 1 3 6 5 4 5 5 4 4 4 5 5 2 3 7 3 5 4 5 7 7 6 7 11 6 6 14 13 13
4 7 9 12 15 16 17 16 17 17 18 20 21 22 11 6 6 5 3 5 4 5 6 4 4 3 4 5 6 4 2 6 9 10 7 6 9 8 11 16 5 8 10 17 17
5 9 11 13 15 17 18 18 17 17 16 17 18 18 5 4 2 0 5 14 10 5 3 1 1 4 3 4 1 5 6 10 7 10 6 5 8 4 13 9 10 9 12 17 19
6 9 11 14 16 17 19 19 17 17 14 14 13 11 2 11 5 13 17 18 14 12 5 5 3 2 5 7 2 6 8 9 5 3 5 3 10 7 19 4 9 9 10 15 18
6 8 10 12 15 17 18 20 19 18 13 11 9 4 6 11 16 22 20 19 17 16 17 15 7 3 3 4 8 6 2 5 3 8 6 4 10 18 9 7 11 11 3 10 17
8 8 9 12 15 16 18 20 20 15 9 5 1 1 9 11 10 9 12 9 7 9 8 10 2 3 5 2 5 3 5 5 10 5 5 2 11 13 18 3 10 10 11 7 11
8 10 10 13 14 18 19 12 7 5 5 4 2 3 8 5 5 11 8 9 5 2 4 1 5 2 2 3 6 6 4 5 6 5 12 17 14 15 14 5 10 10 11 10 10
8 11 12 13 14 18 16 3 7 4 4 5 1 4 6 11 5 7 4 8 1 4 5 1 3 6 13 14 6 5 8 8 8 15 11 13 19 17 16 9 12 14 11 11 12
10 13 13 10 9 18 19 7 5 5 8 6 8 10 19 6 6 13 4 1 1 5 2 4 6 11 8 6 7 9 12 14 15 12 5 15 23 16 12 12 11 11 11 12 8
10 12 12 6 5 7 18 14 13 4 2 7 4 5 6 8 6 17 4 1 4 2 5 9 6 3 3 7 6 13 6 12 18 17 14 9 22 17 7 6 11 8 11 8 10
10 12 12 3 3 6 3 16 8 1 4 6 4 4 2 2 5 5 8 5 2 6 6 6 4 5 7 5 5 17 4 13 15 12 13 3 17 28 7 11 8 11 12 9 9
10 10 10 14 3 4 12 16 5 2 4 8 4 5 5 4 6 11 2 4 7 7 4 8 6 11 14 11 4 13 6 7 13 16 8 23 3 21 7 7 8 11 13 14 8
8 8 6 4 4 9 14 8 2 6 3 6 4 7 5 8 10 8 8 7 3 3 5 9 3 4 7 10 7 7 13 11 8 7 10 19 5 11 20 7 6 8 10 11 13
6 6 6 6 3 14 13 3 5 5 5 6 4 6 5 7 10 9 6 13 5 6 5 7 2 2 6 6 5 3 5 8 6 8 12 10 9 16 10 10 6 9 12 12 16
5 8 9 9 11 13 5 5 4 2 4 3 5 3 5 8 4 9 3 4 11 5 2 4 6 4 5 3 4 5 3 3 8 4 10 12 11 14 4 10 7 10 13 20 21
5 8 7 12 14 9 5 5 5 1 3 4 4 6 6 6 4 7 6 3 7 8 4 4 6 5 9 1 2 4 4 7 4 2 3 5 14 24 19 5 8 15 20 23 22
5 4 8 14 11 4 5 3 2 3 3 2 3 5 5 6 5 6 2 4 4 8 2 4 10 4 1 5 4 1 6 5 4 4 5 4 8 9 11 16 18 20 21 23 24
5 4 11 12 6 5 4 4 1 2 6 4 2 3 3 3 1 3 3 1 4 7 6 3 4 6 6 2 2 6 6 3 3 3 4 1 6 1 15 18 20 20 21 23 21
4 3 13 12 4 2 3 1 5 4 5 4 4 3 2 2 2 3 5 3 4 2 5 3 4 8 7 14 15 5 2 2 2 3 4 4 6 10 17 21 20 21 22 24 21
3 0 7 6 3 2 3 3 3 6 5 5 4 3 4 0 2 3 3 4 7 7 4 4 3 7 8 4 7 4 5 4 4 4 5 2 6 14 20 17 16 19 20 21 22
3 3 4 5 1 4 1 2 4 6 4 3 2 4 5 4 3 4 4 2 5 2 5 1 4 10 13 9 4 10 11 7 5 4 9 12 23 18 17 15 15 17 18 21 22
4 0 1 1 4 3 4 3 2 4 4 5 3 6 4 3 4 4 2 3 3 6 2 1 5 6 14 8 8 13 14 10 11 9 10 20 21 16 10 12 13 12 15 19 21
3 3 4 2 2 2 1 1 2 4 4 4 4 7 3 3 3 10 9 5 6 6 3 1 5 4 18 12 13 15 13 13 12 15 16 19 22 4 6 12 15 14 14 17 19
3 3 4 3 1 2 1 2 4 2 3 2 2 2 4 5 6 10 11 11 10 9 10 7 6 2 22 6 12 18 16 16 13 12 9 7 7 2 4 8 12 9 15 18 20
Wind_Direction
1 357 356 356 355 354 353 353 352 353 353 351 349 348 345 338 344 3 244 277 318 333 317 328 320 347 312 298 167 105 53 289 274 290 284 287 3 307 302 76 246 207 167 232 164
20 8 4 0 356 353 352 351 351 352 351 350 350 350 346 338 339 348 334 295 287 308 328 359 345 347 18 278 340 91 112 231 223 268 283 298 196 292 345 9 253 321 358 127 143
19 6 358 352 351 350 348 348 348 348 348 347 348 349 348 342 339 310 357 323 294 290 310 319 310 113 354 10 6 146 182 237 276 247 284 275 303 219 252 297 211 242 166 160 155
14 354 345 344 344 343 342 340 341 343 344 344 346 347 348 355 267 354 346 352 330 300 320 344 12 26 358 340 301 295 254 224 278 295 314 279 304 289 197 246 190 221 178 170 178
3 349 344 341 337 333 329 327 329 332 336 338 341 349 359 4 264 318 9 22 1 327 342 355 34 26 346 301 328 205 292 302 275 278 246 269 261 254 282 274 213 232 175 188 193
352 337 334 334 327 323 319 317 316 317 322 326 335 346 359 313 279 100 320 319 307 309 306 199 231 252 255 289 332 302 287 283 283 281 260 240 275 156 265 266 274 198 204 201 198
356 338 330 328 327 320 315 312 307 304 304 312 325 345 328 242 231 281 278 274 278 282 271 252 233 75 323 321 298 287 310 311 287 296 294 236 307 239 262 340 270 273 224 213 213
350 337 332 331 327 324 320 315 309 295 293 294 311 325 249 268 278 272 274 276 256 266 245 271 285 197 180 300 349 334 333 325 315 344 299 139 285 307 316 296 281 294 256 230 217
353 347 343 346 337 337 327 317 304 299 280 268 281 183 265 295 268 273 259 253 234 239 251 272 205 188 31 56 345 334 255 270 317 255 7 344 300 292 312 359 298 296 288 257 250
352 349 358 358 357 347 334 328 23 85 95 115 84 11 275 273 326 318 292 249 234 68 352 213 60 110 50 121 235 245 246 268 276 291 324 308 280 284 290 312 288 290 290 283 276
357 358 6 7 17 13 355 31 14 354 12 208 242 282 301 346 335 306 339 347 95 91 203 308 124 196 226 220 218 251 265 259 270 284 304 276 278 281 290 306 294 288 278 274 268
15 6 4 9 34 36 52 68 39 276 309 282 263 267 279 311 324 283 334 167 132 220 35 319 231 232 249 251 226 244 259 276 277 266 229 300 292 285 270 271 248 256 281 273 277
19 10 2 10 42 35 52 33 1 8 253 298 228 256 254 173 232 272 160 238 226 208 231 229 235 355 245 266 277 265 242 264 265 287 273 305 288 297 269 267 284 261 252 271 263
19 14 7 47 96 23 59 354 356 122 51 296 7 333 328 201 266 269 215 160 205 223 241 250 230 228 276 268 219 274 252 269 277 289 277 181 285 288 286 262 264 279 291 267 297
17 16 21 47 54 48 325 337 346 144 55 315 3 318 304 44 293 345 21 49 212 215 181 245 267 282 281 265 192 275 266 271 295 289 294 281 196 292 304 300 287 285 277 293 297
14 16 26 60 64 348 332 334 107 46 250 359 19 356 26 8 352 318 24 16 342 298 267 255 277 203 241 263 238 280 293 285 255 258 267 272 198 251 280 247 261 265 283 348 337
17 25 51 45 352 344 342 48 40 117 344 9 326 348 82 3 1 12 44 49 22 10 347 332 273 17 33 331 336 348 295 287 269 265 269 280 294 255 281 298 279 314 354 342 341
57 70 67 48 355 348 10 52 93 38 14 12 329 352 77 18 14 340 53 39 26 11 21 335 314 10 356 170 246 291 249 235 310 269 291 303 264 269 277 315 28 5 344 349 348
86 75 48 7 354 355 70 62 185 277 352 357 345 54 7 357 55 23 27 31 27 21 11 327 267 339 329 328 358 302 193 228 237 338 275 262 275 282 275 280 15 9 1 344 339
89 69 21 351 356 22 72 158 122 17 352 14 68 49 32 12 43 19 334 7 353 13 11 314 299 226 328 338 300 23 298 11 360 219 225 259 277 265 358 12 9 360 351 335 333
75 63 352 352 355 47 126 196 285 68 49 63 96 58 89 30 41 343 291 56 4 337 348 316 226 295 358 236 71 347 333 331 209 216 282 286 266 106 25 14 358 354 355 339 326
78 65 351 2 54 52 122 181 358 10 5 28 82 40 114 68 306 255 225 244 16 344 344 301 284 288 279 268 268 218 358 50 278 321 292 269 257 70 18 355 10 356 355 340 339
82 147 3 10 107 34 331 353 48 21 25 34 43 41 357 66 314 237 271 39 39 15 20 335 311 313 311 3 9 75 1 32 17 16 263 350 273 328 349 356 12 358 355 348 337
87 54 345 43 27 118 110 24 30 7 70 33 348 67 21 5 40 296 309 315 28 3 321 346 234 238 258 279 343 305 304 289 247 242 277 258 292 312 333 350 3 359 9 353 348
33 251 170 37 5 44 54 31 38 14 21 22 24 50 354 284 296 256 337 322 293 239 254 167 260 259 276 278 286 278 267 255 231 236 244 280 275 311 338 358 358 350 2 353 347
100 100 25 53 0 87 357 163 115 11 5 333 52 337 336 254 269 301 293 318 248 304 260 257 272 282 285 282 275 280 265 253 233 241 255 265 268 6 18 0 348 347 354 343 337
53 75 99 338 75 105 218 81 96 42 298 140 354 292 289 292 318 286 267 257 248 263 263 251 265 286 276 300 323 289 263 247 237 236 215 250 274 356 55 355 325 337 346 330 325